TimeAKDT,TemperatureF,Dew PointF,Humidity,Sea Level PressureIn,VisibilityMPH,Wind Direction,Wind SpeedMPH,Gust SpeedMPH,PrecipitationIn,Events,Conditions,WindDirDegrees,DateUTC
12:16 AM,50.0,42.8,76,30.27,8.0,SE,18.4,28.8,0.02,,Overcast,130,2013-10-14 08:16:00
12:36 AM,50.0,42.8,76,30.28,8.0,SE,16.1,27.6,0.03,,Overcast,140,2013-10-14 08:36:00
12:56 AM,50.0,42.8,76,30.28,7.0,SE,21.9,27.6,0.05,,Overcast,130,2013-10-14 08:56:00
1:16 AM,50.0,42.8,76,30.28,5.0,SE,20.7,28.8,0.01,,Overcast,140,2013-10-14 09:16:00
1:36 AM,50.0,42.8,76,30.29,10.0,SE,17.3,26.5,0.01,,Overcast,140,2013-10-14 09:36:00
1:56 AM,50.0,42.8,76,30.29,10.0,SE,18.4,24.2,0.01,,Overcast,130,2013-10-14 09:56:00
2:16 AM,51.8,42.8,71,30.28,10.0,SE,20.7,26.5,N/A,,Overcast,130,2013-10-14 10:16:00
2:36 AM,50.0,44.6,82,30.29,3.0,ESE,17.3,25.3,N/A,,Overcast,120,2013-10-14 10:36:00
2:56 AM,50.0,44.6,82,30.29,4.0,ESE,18.4,23.0,0.01,,Overcast,120,2013-10-14 10:56:00
3:16 AM,50.0,44.6,82,30.29,5.0,East,15.0,-,0.01,,Overcast,100,2013-10-14 11:16:00
3:36 AM,48.2,44.6,87,30.28,5.0,East,15.0,19.6,0.02,,Overcast,100,2013-10-14 11:36:00
3:56 AM,50.0,44.6,82,30.28,4.0,ESE,15.0,19.6,0.02,,Overcast,110,2013-10-14 11:56:00
4:16 AM,50.0,44.6,82,30.28,5.0,ESE,13.8,18.4,N/A,,Overcast,120,2013-10-14 12:16:00
4:36 AM,51.8,44.6,76,30.27,8.0,ESE,15.0,21.9,0.01,,Overcast,120,2013-10-14 12:36:00
4:56 AM,51.8,44.6,76,30.26,9.0,SE,18.4,24.2,0.01,,Overcast,130,2013-10-14 12:56:00
5:16 AM,51.8,44.6,76,30.26,10.0,SE,17.3,24.2,N/A,,Overcast,140,2013-10-14 13:16:00
5:36 AM,51.8,44.6,76,30.25,5.0,SE,18.4,26.5,N/A,,Overcast,130,2013-10-14 13:36:00
5:56 AM,51.8,44.6,76,30.25,8.0,ESE,18.4,25.3,0.01,,Overcast,120,2013-10-14 13:56:00
6:16 AM,51.8,44.6,76,30.24,7.0,ESE,16.1,27.6,N/A,,Overcast,110,2013-10-14 14:16:00
6:36 AM,51.8,44.6,76,30.23,7.0,ESE,18.4,26.5,N/A,,Overcast,110,2013-10-14 14:36:00
6:56 AM,51.8,44.6,76,30.23,7.0,ESE,16.1,21.9,N/A,,Overcast,110,2013-10-14 14:56:00
7:16 AM,51.8,44.6,76,30.24,7.0,SE,12.7,23.0,0.01,,Overcast,130,2013-10-14 15:16:00
7:36 AM,51.8,44.6,76,30.25,7.0,ESE,12.7,20.7,0.03,,Overcast,120,2013-10-14 15:36:00
7:56 AM,51.8,44.6,76,30.24,4.0,SE,12.7,19.6,0.05,,Overcast,140,2013-10-14 15:56:00
8:16 AM,51.8,46.4,82,30.24,4.0,ESE,12.7,19.6,0.01,,Overcast,110,2013-10-14 16:16:00
8:36 AM,51.8,44.6,76,30.25,4.0,SSE,10.4,-,0.02,,Overcast,150,2013-10-14 16:36:00
8:56 AM,51.8,46.4,82,30.24,4.0,ESE,12.7,16.1,0.06,,Overcast,120,2013-10-14 16:56:00
9:16 AM,51.8,46.4,82,30.23,4.0,ESE,15.0,21.9,0.04,,Overcast,120,2013-10-14 17:16:00
9:36 AM,51.8,46.4,82,30.24,4.0,South,11.5,23.0,0.07,,Overcast,170,2013-10-14 17:36:00
9:56 AM,51.8,46.4,82,30.24,4.0,ESE,12.7,19.6,0.09,,Overcast,120,2013-10-14 17:56:00
10:16 AM,51.8,46.4,82,30.24,4.0,ESE,11.5,-,0.03,,Overcast,120,2013-10-14 18:16:00
10:36 AM,51.8,44.6,76,30.23,4.0,SE,13.8,21.9,0.04,,Overcast,140,2013-10-14 18:36:00
10:56 AM,53.6,46.4,77,30.22,4.0,ESE,18.4,24.2,0.06,,Overcast,120,2013-10-14 18:56:00
11:16 AM,51.8,46.4,82,30.21,4.0,ESE,17.3,24.2,0.03,,Overcast,120,2013-10-14 19:16:00
11:36 AM,53.6,46.4,77,30.20,4.0,ESE,17.3,24.2,0.04,,Overcast,120,2013-10-14 19:36:00
11:56 AM,53.6,46.4,77,30.22,4.0,South,10.4,23.0,0.05,,Overcast,180,2013-10-14 19:56:00
12:16 PM,53.6,48.2,82,30.22,4.0,Calm,Calm,-,0.04,,Overcast,0,2013-10-14 20:16:00
12:36 PM,53.6,48.2,82,30.22,4.0,Calm,Calm,-,0.09,,Overcast,0,2013-10-14 20:36:00
1:16 PM,53.6,46.4,77,30.20,4.0,SSE,11.5,-,N/A,,Overcast,150,2013-10-14 21:16:00
1:36 PM,53.6,46.4,77,30.19,4.0,SE,13.8,18.4,N/A,,Overcast,130,2013-10-14 21:36:00
1:56 PM,53.6,46.4,77,30.19,4.0,SE,11.5,19.6,N/A,,Overcast,140,2013-10-14 21:56:00
2:16 PM,53.6,46.4,77,30.17,4.0,ESE,13.8,20.7,N/A,,Overcast,120,2013-10-14 22:16:00
2:36 PM,53.6,48.2,82,30.18,4.0,SW,6.9,-,N/A,,Overcast,230,2013-10-14 22:36:00
2:56 PM,53.6,48.2,82,30.18,4.0,South,5.8,-,0.18,,Overcast,190,2013-10-14 22:56:00
3:16 PM,53.6,48.2,82,30.19,4.0,SW,3.5,-,0.04,,Overcast,230,2013-10-14 23:16:00
3:36 PM,53.6,48.2,82,30.19,4.0,Calm,Calm,-,0.09,,Overcast,0,2013-10-14 23:36:00
3:56 PM,53.6,48.2,82,30.19,4.0,NW,3.5,-,0.13,,Overcast,310,2013-10-14 23:56:00
4:16 PM,53.6,48.2,82,30.20,4.0,NNW,3.5,-,0.03,,Overcast,330,2013-10-15 00:16:00
4:36 PM,53.6,48.2,82,30.20,4.0,SSW,3.5,-,0.08,,Overcast,210,2013-10-15 00:36:00
4:56 PM,55.4,48.2,77,30.21,4.0,West,6.9,-,0.12,,Overcast,270,2013-10-15 00:56:00
5:16 PM,51.8,46.4,82,30.22,3.0,WNW,16.1,26.5,0.06,,Overcast,290,2013-10-15 01:16:00
5:36 PM,50.0,44.6,82,30.23,3.0,WNW,19.6,26.5,0.11,,Overcast,290,2013-10-15 01:36:00
5:56 PM,48.2,42.8,82,30.26,4.0,WNW,12.7,-,0.14,,Overcast,290,2013-10-15 01:56:00
6:16 PM,48.2,42.8,82,30.27,4.0,West,13.8,-,0.05,,Overcast,280,2013-10-15 02:16:00
6:36 PM,48.2,42.8,82,30.28,4.0,West,11.5,-,0.09,,Overcast,260,2013-10-15 02:36:00
6:56 PM,48.2,42.8,82,30.29,4.0,West,11.5,-,0.12,,Overcast,270,2013-10-15 02:56:00
7:16 PM,48.2,42.8,82,30.30,4.0,West,9.2,-,0.04,,Overcast,260,2013-10-15 03:16:00
7:36 PM,48.2,42.8,82,30.31,4.0,WSW,8.1,-,0.06,,Overcast,250,2013-10-15 03:36:00
7:56 PM,46.4,42.8,87,30.32,4.0,West,8.1,-,0.09,,Overcast,260,2013-10-15 03:56:00
8:16 PM,46.4,42.8,87,30.32,4.0,West,8.1,-,0.01,,Overcast,260,2013-10-15 04:16:00
8:36 PM,46.4,42.8,87,30.33,4.0,WSW,4.6,-,0.01,,Overcast,250,2013-10-15 04:36:00
8:56 PM,46.4,42.8,87,30.33,7.0,WSW,4.6,-,0.01,,Overcast,250,2013-10-15 04:56:00
9:16 PM,46.4,42.8,87,30.34,7.0,SW,5.8,-,N/A,,Overcast,230,2013-10-15 05:16:00
9:36 PM,46.4,42.8,87,30.34,7.0,SW,5.8,-,0.01,,Overcast,230,2013-10-15 05:36:00
9:56 PM,46.4,42.8,87,30.35,10.0,WSW,4.6,-,0.01,,Overcast,250,2013-10-15 05:56:00
10:16 PM,46.4,42.8,87,30.35,10.0,WSW,5.8,-,N/A,,Overcast,250,2013-10-15 06:16:00
10:36 PM,46.4,42.8,87,30.35,10.0,West,5.8,-,N/A,,Overcast,260,2013-10-15 06:36:00
10:56 PM,46.4,42.8,87,30.35,10.0,West,4.6,-,N/A,,Mostly Cloudy,260,2013-10-15 06:56:00
11:16 PM,46.4,42.8,87,30.36,10.0,SW,3.5,-,N/A,,Overcast,230,2013-10-15 07:16:00
11:36 PM,46.4,41.0,81,30.36,10.0,WSW,4.6,-,N/A,,Mostly Cloudy,250,2013-10-15 07:36:00
11:56 PM,46.4,41.0,81,30.36,10.0,West,4.6,-,N/A,,Mostly Cloudy,270,2013-10-15 07:56:00